MST,Max TemperatureF,Mean TemperatureF,Min TemperatureF,Max Dew PointF,MeanDew PointF,Min DewpointF,Max Humidity, Mean Humidity, Min Humidity, Max Sea Level PressureIn, Mean Sea Level PressureIn, Min Sea Level PressureIn, Max VisibilityMiles, Mean VisibilityMiles, Min VisibilityMiles, Max Wind SpeedMPH, Mean Wind SpeedMPH, Max Gust SpeedMPH,PrecipitationIn, CloudCover, Events, WindDirDegrees
2013-4-1,62,50,39,28,20,9,52,34,12,30.14,30.09,30.04,10,10,10,28,13,36,0.00,0,,203
2013-4-2,59,44,28,34,18,10,81,39,17,30.13,30.04,29.97,10,10,10,17,7,26,0.00,2,Rain,246
2013-4-3,59,44,28,30,24,18,87,50,22,30.25,30.18,30.10,10,10,10,13,4,24,0.00,0,,339
2013-4-4,69,48,28,23,13,7,59,28,9,30.29,30.23,30.16,10,10,10,15,6,21,0.03,0,Thunderstorm,190
2013-4-5,66,55,44,25,20,14,46,26,15,30.15,30.10,30.03,10,10,10,28,13,36,0.00,0,,204
2013-4-6,66,52,39,25,22,19,53,33,17,30.14,30.08,30.02,10,10,10,18,10,24,0.00,0,,211
2013-4-7,68,52,35,27,23,21,56,34,19,30.08,30.00,29.90,10,10,10,22,9,28,0.00,0,,204
2013-4-8,62,47,32,32,26,18,100,44,18,29.90,29.62,29.47,10,9,0,50,22,64,0.08,2,Rain-Snow,196
2013-4-9,37,34,30,32,30,28,100,91,81,29.94,29.72,29.53,10,5,0,21,10,30,0.26,8,Rain-Snow,215
2013-4-10,44,36,26,30,22,10,93,62,29,30.08,30.02,29.92,10,10,6,20,7,24,0.00,4,Rain-Snow,344
2013-4-11,62,43,24,32,23,16,81,51,22,30.07,30.00,29.94,10,10,7,16,5,23,0.00,1,Rain,192
2013-4-12,62,46,30,32,23,16,80,42,17,30.03,29.98,29.93,10,10,9,12,6,,0.00,1,,208
2013-4-13,66,50,35,27,22,16,65,35,15,30.02,29.95,29.86,10,10,10,23,10,32,0.00,0,,210
2013-4-14,64,54,44,25,22,19,43,29,20,29.90,29.85,29.81,10,10,10,36,22,45,0.00,0,,208
2013-4-15,62,52,42,27,24,19,49,33,19,29.85,29.81,29.77,10,10,10,45,28,53,0.00,0,,194
2013-4-16,64,54,44,30,23,16,57,34,15,29.83,29.79,29.75,10,10,10,48,34,61,0.00,0,,202
2013-4-17,44,36,28,32,25,16,93,69,39,30.09,29.92,29.78,10,8,0,31,17,43,0.09,5,Rain-Snow,239
2013-4-18,44,32,19,21,11,0,86,48,16,30.29,30.17,30.09,10,10,10,20,7,28,0.00,0,,5
2013-4-19,59,41,23,10,4,0,54,23,9,30.30,30.21,30.09,10,10,10,17,8,22,0.00,0,,184
2013-4-20,66,50,35,14,9,1,38,20,10,30.18,30.09,30.03,10,10,10,22,9,32,0.00,0,,258
2013-4-21,69,50,32,18,16,14,51,26,13,30.25,30.18,30.13,10,10,9,18,5,24,0.00,0,,220
2013-4-22,71,58,44,18,15,14,32,20,12,30.17,30.09,30.00,10,10,10,23,12,31,0.00,0,,203
2013-4-23,62,48,35,23,15,1,34,24,14,30.13,30.05,29.98,10,10,10,18,9,25,0.00,0,,291
2013-4-24,66,50,35,23,17,3,37,24,13,30.13,30.10,30.07,10,10,10,24,12,32,0.00,0,,202
2013-4-25,66,54,42,23,18,5,42,25,12,30.18,30.09,30.01,10,10,10,33,12,44,0.00,1,,197
2013-4-26,66,52,39,27,18,7,56,29,10,30.31,30.25,30.18,10,10,10,17,9,20,0.00,0,,255
2013-4-27,68,52,35,19,11,1,52,22,9,30.32,30.26,30.20,10,10,7,16,3,30,0.00,0,,357
2013-4-28,73,52,32,14,6,0,35,17,6,30.21,30.14,30.06,10,10,10,13,4,16,0.00,0,,259
2013-4-29,77,58,39,23,14,5,33,17,10,30.10,30.03,29.96,10,10,9,17,7,24,0.00,0,,202
2013-4-30,73,62,50,19,15,10,24,16,9,30.04,30.00,29.96,10,10,9,30,14,43,0.00,0,,200